Regional Weather Roundup
Issued by NWS State College, PA

Home | Current Version | Previous Version | Text Only | Print | Product List | Glossary On
Versions: 1 2 3 4 5 6 7 8 9 10 11 12 13 14 15 16 17 18 19 20 21 22 23 24 25 26 27 28 29 30 31 32 33 34 35 36 37 38 39 40 41 42 43 44 45 46 47 48 49 50
000
ASUS41 KCTP 300803
RWRCTP

REGIONAL WEATHER ROUNDUP
NATIONAL WEATHER SERVICE STATE COLLEGE PA
400 AM EDT TUE SEP 30 2014

Note: "fair" indicates few or no clouds below 12,000 feet with no
significant weather and/or obstructions to visibility.

* = STATION THAT DOES NOT REPORT PRECIPITATION /E.G. RAIN...SNOW...ETC/
    THUNDER OR FOG.

PAZ002>004-007>009-013>016-020>023-029>032-300900-
WESTERN PENNSYLVANIA

CITY           SKY/WX    TMP DP  RH WIND       PRES   REMARKS
ERIE           PTCLDY    58  52  80 S6        29.87F
MEADVILLE      CLEAR     56  52  86 S3        29.89F
FRANKLIN*      CLEAR     54  50  87 S3        29.91S
NEW CASTLE     FOG       51  51 100 CALM      29.90F VSB 3/4
BEAVER COUNTY  NOT AVBL
BUTLER*        MOCLDY    52  48  87 CALM      29.91F
PITTSBURGH INT CLEAR     56  53  90 CALM      29.89F
PITTSBURGH     CLEAR     60  55  83 S7        29.89S HAZE
INDIANA*       MOCLDY    55  54  94 CALM      29.94S
LATROBE        CLEAR     55  55 100 CALM      29.91S
WASHINGTON CO* CLEAR     52  48  87 CALM      29.91F
$$

PAZ004>006-010>012-017>019-024>028-033>037-041-042-045-046-049>053-300900-
CENTRAL PENNSYLVANIA

CITY           SKY/WX    TMP DP  RH WIND       PRES   REMARKS
BRADFORD       FOG       47  45  93 CALM      29.91F VSB 1/2
DUBOIS         CLEAR     53  52  96 E5        29.90F FOG
CLEARFIELD     PTCLDY    51  50  96 CALM      29.91F FOG
JOHNSTOWN      CLEAR     58  51  78 S5        29.93F
ALTOONA        CLOUDY    60  57  89 CALM      29.92F
STATE COLLEGE  MOCLDY    57  55  93 CALM      29.91S
WILLIAMSPORT   FOG       58  56  93 N3        29.90S VSB 1/2
SELINSGROVE    FOG       56  54  93 CALM      29.91S VSB 1/4
FT INDIANTOWN  CLOUDY    63  63 100 N2        29.91F
CAPITAL CITY   CLEAR     59  57  93 CALM      29.90F FOG
HARRISBURG     CLEAR     62  60  93 SE5       29.90S FOG
YORK           FOG       56  56 100 CALM      29.90F VSB 1/2
$$

PAZ038>040-043-044-047-048-054-055-060>062-067>071-300900-
EASTERN PENNSYLVANIA

CITY           SKY/WX    TMP DP  RH WIND       PRES   REMARKS
SCRANTON       CLEAR     59  55  87 E6        29.92S
MOUNT POCONO   PTCLDY    52  50  93 CALM      29.94F FOG
ALLENTOWN      FOG       57  56  96 NE3       29.92S VSB 1/2
QUAKERTOWN*    PTSUNNY   55  55 100 CALM      29.93S
READING        MOCLDY    62  60  93 CALM      29.90F FOG
LANCASTER      FOG       59  59 100 NE3       29.91F VSB<1/4
COATESVILLE    FOG       64  64 100 CALM      29.93S VSB 1
POTTSTOWN      MOCLDY    59  58  96 CALM      29.93S FOG
BLUE BELL      CLOUDY    61  61 100 CALM      29.91F
DOYLESTOWN     MOCLDY    59  59 100 CALM      29.92S
WILLOW GROVE   NOT AVBL
NORTH PHILA    CLOUDY    65  59  81 CALM      29.93F
PHILADELPHIA   CLOUDY    65  61  87 W3        29.92F
$$



USA.gov is the U.S. government's official web portal to all federal, state and local government web resources and services.